Location: Newark
(37.8333°N, 119.5000°W)
Time: 14:33:41
(UTC+00:00)

Tiros 1 despin weight - Pass Details

Date: 22 August 2019
Orbit: 594 x 642 km, 48.2° (Epoch: 20 September)

Event Time Altitude Azimuth Distance (km) Brightness Sun altitude
Rises 13:28:03 0° 302° (WNW) 2,891 ? 0.8°
Reaches altitude 10° 13:30:21 10° 302° (WNW) 1,991 ? 1.3°
Maximum altitude 13:34:56 79° 217° (SW) 643 ? 2.1°
Drops below altitude 10° 13:39:34 10° 130° (SE) 2,010 ? 3.0°
Sets 13:41:54 0° 129° (SE) 2,921 ? 3.5°
